Simultaneous Nadir Overpasses (SNOs) Predictions

Prediction of SNOs between NOAA-20 and AQUA Satellite Orbit:

Table of predicted SNOs for the next 14.0 days since TLE Epoch: 10/12/2018
Index Date (NOAA-20) Time (NOAA-20) Lat,Lon (NOAA-20) SZA (NOAA-20 ) Date (AQUA) Time (AQUA) Lat,Lon (AQUA) SZA (AQUA ) Distance(km) Time Diff (sec)
1 10/14/2018 14:29:42 -76.00, 21.46 75.46 10/14/2018 14:30:00 -76.00, 21.49 75.48 0.82 18
2 10/14/2018 15:20:01 77.12,-166.98 103.23 10/14/2018 15:19:02 77.11,-167.07 103.30 2.52 59
3 10/17/2018 05:56:01 75.50, -31.68 106.03 10/17/2018 05:57:10 75.49, -31.76 105.98 2.25 69
4 10/17/2018 06:46:29 -76.32, 138.38 74.91 10/17/2018 06:46:21 -76.33, 138.41 74.91 0.74 8
5 10/19/2018 22:12:56 75.51, 84.11 106.94 10/19/2018 22:13:38 75.52, 84.20 106.87 2.68 42
6 10/19/2018 23:03:16 -76.69,-104.48 74.42 10/19/2018 23:02:42 -76.69,-104.48 74.39 0.17 34
7 10/22/2018 14:29:41 75.98,-158.59 107.31 10/22/2018 14:29:57 75.98,-158.55 107.28 1.32 16
8 10/22/2018 15:20:04 -77.00, 12.54 73.89 10/22/2018 15:19:04 -77.00, 12.51 73.83 1.06 60
9 10/25/2018 05:56:04 -75.43, 148.09 71.20 10/25/2018 05:57:12 -75.42, 148.04 71.25 1.50 68
10 10/25/2018 06:46:26 76.44, -41.20 107.67 10/25/2018 06:46:16 76.44, -41.22 107.68 0.55 10




NCC Satellite Simultaneous Nadir Overpasses (SNOs) Prediction Service
